www.pogodaiklimat.ru

Погода и климат >> Архив погоды >> Япония >> Тоёока


ПОГОДА в Тоёоке

  • Прогноз погоды в Тоёоке
  • Монитор погоды в Тоёоке

АРХИВ ПОГОДЫ в Тоёоке

Время (UTC), дата Ветер
(напр.,м/с)
 
Видим.   Явления Облачность Т
(С)
Тd
(С)
f
(%)
Тe
(С)
Тes
(С)
Комфортность P
(гПа)
Po
(гПа)
Тmin
(С)
Tmax
(С)
R
(мм)
R24
(мм)
S
(см)
07 12.06 С 4 20 км н/о +22.0 +16.3 70 +26 +26 душно 1009.1 1008.4
08 12.06 СЗ 4 20 км н/о +21.5 +15.4 68 +25 +25 комфорт 1009.3 1008.6
09 12.06 С 3 20 км н/о +21.0 +15.1 69 +25 +25 комфорт 1009.7 1009.0
10 12.06 СЗ 3 20 км н/о +19.9 +15.8 77 +23 +23 комфорт 1010.3 1009.6
11 12.06 СЗ 3 20 км н/о +19.3 +15.8 80 +21 +21 комфорт 1010.8 1010.1
12 12.06 ЮЗ 1 20 км н/о +18.3 +15.9 86 +20 +20 1011.8 1011.1 +24.5 0.5
13 12.06 С 1 20 км н/о +17.7 +16.1 90 +19 +19 1012.2 1011.5
14 12.06 СЗ 1 20 км н/о +17.0 +15.9 93 +18 +18 1012.2 1011.5
15 12.06 В 1 20 км н/о +16.2 +15.4 95 +17 +17 1012.1 1011.4
16 12.06 СЗ 1 19 км н/о +15.8 +15.2 96 +17 +17 1012.1 1011.4
17 12.06 В 1 20 км н/о +15.5 +14.9 96 +16 +16 1012.2 1011.5
18 12.06 В 1 20 км н/о +15.4 +14.8 96 +17 +17 1012.1 1011.4
19 12.06 Ю 1 12 км н/о +14.8 +14.7 99 +15 +15 1012.2 1011.5
20 12.06 ЮЗ 1 14 км н/о +14.3 +14.2 99 +15 +15 1012.5 1011.8
21 12.06 З 1 17 км н/о +14.7 +14.2 97 +16 +16 1012.9 1012.2
22 12.06 ЮЗ 1 20 км н/о +15.8 +14.7 93 +17 +17 1013.4 1012.7
23 12.06 ЮВ 1 20 км н/о +16.8 +14.5 86 +18 +18 1013.7 1013.0
00 13.06 Ю 1 20 км н/о +20.8 +15.4 71 +25 +25 комфорт 1013.5 1012.8 +14.2
01 13.06 ЮВ 2 20 км н/о +23.4 +16.0 63 +28 +28 душно 1013.0 1012.3
02 13.06 Ю 2 20 км н/о +25.4 +16.3 57 +29 +29 душно 1012.3 1011.6
03 13.06 СВ 2 20 км н/о +25.6 +15.3 53 +29 +29 душно 1011.6 1010.9
04 13.06 С 3 20 км н/о +27.0 +15.7 50 +30 +30 душно 1010.7 1010.0
05 13.06 СВ 5 20 км н/о +27.3 +17.2 54 +31 +31 душно 1010.3 1009.6
07 13.06 СЗ 4 20 км н/о +25.7 +17.6 61 +30 +30 душно 1009.6 1008.9
08 13.06 СЗ 4 20 км н/о +24.1 +17.1 65 +28 +28 душно 1009.5 1008.8
09 13.06 СЗ 4 20 км н/о +23.4 +16.9 67 +29 +29 душно 1009.8 1009.1
10 13.06 СЗ 2 20 км н/о +23.0 +17.2 70 +28 +28 душно 1010.1 1009.4
11 13.06 С 2 20 км н/о +21.5 +17.7 79 +26 +26 душно 1010.7 1010.0
12 13.06 С 1 20 км н/о +20.6 +18.0 85 +26 +26 душно 1011.4 1010.7 +28.5
13 13.06 В 1 20 км н/о +19.7 +18.0 90 +23 +23 комфорт 1012.2 1011.5
14 13.06 СЗ 1 20 км н/о +19.1 +17.6 91 +22 +22 комфорт 1012.4 1011.7
15 13.06 С 1 20 км н/о +18.9 +17.6 92 +22 +22 комфорт 1012.4 1011.7
16 13.06 СЗ 1 20 км н/о +18.6 +17.5 93 +21 +21 комфорт 1011.8 1011.1
17 13.06 В 1 20 км н/о +18.5 +17.4 93 +21 +21 комфорт 1011.5 1010.8
18 13.06 ЮВ 1 20 км н/о +18.7 +17.7 94 +21 +21 комфорт 1010.9 1010.2
19 13.06 Ю 1 20 км н/о +18.2 +17.2 94 +20 +20 1010.6 1009.9
20 13.06 ЮВ 1 20 км н/о +18.2 +17.2 94 +20 +20 1010.7 1010.0
21 13.06 Ю 1 20 км н/о +19.5 +17.6 89 +23 +23 комфорт 1010.6 1009.9
22 13.06 ЮВ 2 20 км н/о +22.1 +18.1 78 +27 +27 душно 1010.0 1009.3
23 13.06 Ю 4 20 км н/о +24.1 +17.6 67 +28 +28 душно 1009.8 1009.1
00 14.06 Ю 5 20 км н/о +25.3 +16.7 59 +29 +29 душно 1009.1 1008.4 +17.9
02 14.06 Ю 4 20 км н/о +29.6 +16.8 46 +33 +33 душно 1008.2 1007.5
03 14.06 ЮВ 4 20 км н/о +29.3 +16.2 45 +32 +32 душно 1007.4 1006.7
04 14.06 ЮВ 4 20 км н/о +30.0 +16.8 45 +34 +34 очень
душно
1006.6 1005.9
05 14.06 В 5 20 км н/о +29.1 +18.3 52 +34 +34 очень
душно
1006.2 1005.5
06 14.06 В 5 20 км н/о +28.1 +17.6 53 +32 +32 душно 1006.0 1005.3
07 14.06 ЮВ 5 20 км н/о +26.6 +17.4 57 +31 +31 душно 1005.8 1005.1
08 14.06 ЮВ 5 20 км н/о +25.0 +17.5 63 +29 +29 душно 1005.8 1005.1
09 14.06 Ю 3 20 км н/о +24.5 +17.5 65 +29 +29 душно 1005.9 1005.2
10 14.06 Ю 3 20 км н/о +23.8 +17.8 69 +28 +28 душно 1005.5 1004.8
11 14.06 Ю 2 20 км н/о +24.0 +16.8 64 +28 +28 душно 1005.2 1004.5
12 14.06 ЮВ 2 20 км н/о +23.7 +16.7 65 +27 +27 жарко 1005.4 1004.7 +30.5
13 14.06 ЮВ 4 20 км н/о +23.4 +15.7 62 +28 +28 душно 1004.7 1004.0
14 14.06 ЮВ 3 20 км н/о +23.1 +15.4 62 +27 +27 душно 1004.2 1003.5
15 14.06 ЮВ 4 20 км н/о +22.9 +15.3 62 +27 +27 душно 1003.6 1002.9
16 14.06 ЮВ 3 20 км слаб. дождь н/о +22.0 +15.1 65 +26 +26 душно 1002.4 1001.7
17 14.06 ЮВ 3 20 км слаб. дождь н/о +21.3 +15.8 71 +25 +25 комфорт 1001.5 1000.8
18 14.06 ЮВ 2 20 км слаб. дождь н/о +20.5 +16.5 78 +24 +24 комфорт 1000.9 1000.2 0.0
19 14.06 ЮВ 2 13 км слаб. дождь н/о +19.6 +17.2 86 +23 +23 комфорт 1000.4 999.7
20 14.06 ЮЗ 1 20 км слаб. дождь н/о +18.7 +17.9 95 +21 +21 комфорт 999.8 999.1
21 14.06 В 1 20 км слаб. дождь н/о +18.5 +17.9 96 +20 +20 998.8 998.1
22 14.06 Ю 1 1900 м дождь н/о +18.4 +17.8 96 +20 +20 998.6 997.9
23 14.06 Ю 1 20 км слаб. дождь н/о +19.2 +17.7 91 +23 +23 комфорт 997.5 996.8
00 15.06 Ю 2 10 км слаб. дождь н/о +19.5 +18.2 92 +22 +22 комфорт 997.1 996.4 +18.2 10
01 15.06 З 2 20 км слаб. дождь н/о +19.2 +18.2 94 +22 +22 комфорт 996.4 995.7
02 15.06 СВ 1 20 км слаб. дождь н/о +19.5 +18.3 93 +23 +23 комфорт 995.0 994.3
03 15.06 С 2 20 км в посл. час дождь н/о +19.3 +17.8 91 +22 +22 комфорт 994.2 993.5
04 15.06 С 2 20 км н/о +19.5 +17.1 86 +22 +22 комфорт 993.2 992.5
05 15.06 СЗ 2 11 км слаб. дождь н/о +19.3 +17.3 88 +22 +22 комфорт 992.4 991.7
06 15.06 С 2 14 км слаб. дождь н/о +18.7 +17.4 92 +21 +21 комфорт 991.7 991.0 6
07 15.06 С 2 6000 м слаб. дождь н/о +18.1 +17.1 94 +19 +19 990.5 989.8
08 15.06 СЗ 4 6000 м дождь н/о +18.3 +17.3 94 +19 +19 989.3 988.6
09 15.06 Ю 1 4100 м слаб. дождь н/о +18.1 +17.6 97 +20 +20 991.0 990.3
10 15.06 С 3 6000 м слаб. дождь н/о +18.0 +17.4 96 +18 +18 990.7 990.0
11 15.06 СЗ 1 4300 м дождь н/о +18.1 +17.8 98 +19 +19 991.0 990.3
12 15.06 СЗ 4 6000 м слаб. дождь н/о +17.2 +16.1 93 +17 +17 992.3 991.6 +19.7 51
13 15.06 З 2 10 км слаб. дождь н/о +17.2 +16.1 93 +18 +18 992.9 992.2
14 15.06 З 1 5000 м слаб. дождь н/о +16.9 +16.3 96 +18 +18 993.4 992.7
15 15.06 З 2 17 км слаб. дождь н/о +17.6 +16.3 92 +18 +18 993.5 992.8
16 15.06 ЮЗ 2 6000 м слаб. дождь н/о +17.6 +16.8 95 +18 +18 994.2 993.5
17 15.06 СЗ 3 20 км слаб. дождь н/о +18.1 +16.3 89 +19 +19 994.7 994.0
18 15.06 СЗ 2 20 км слаб. дождь н/о +17.9 +16.4 91 +19 +19 995.4 994.7 7
19 15.06 СЗ 2 20 км слаб. дождь н/о +18.3 +15.6 84 +19 +19 996.5 995.8
20 15.06 СЗ 4 7000 м дождь н/о +17.5 +15.9 90 +17 +17 997.6 996.9
21 15.06 З 2 12 км слаб. дождь н/о +18.3 +15.9 86 +20 +20 998.3 997.6
22 15.06 С 1 20 км слаб. дождь н/о +18.5 +16.3 87 +20 +20 999.4 998.7
23 15.06 З 2 20 км слаб. дождь н/о +18.7 +16.1 85 +20 +20 1000.4 999.7
00 16.06 З 2 20 км в посл. час дождь н/о +20.0 +15.7 76 +23 +23 комфорт 1001.1 1000.4 +16.8 9
01 16.06 З 3 20 км в посл. час дождь н/о +20.4 +15.4 73 +23 +23 комфорт 1001.8 1001.1
02 16.06 З 4 20 км в посл. час дождь н/о +21.3 +15.6 70 +25 +25 комфорт 1002.3 1001.6
03 16.06 СЗ 5 20 км в посл. час дождь н/о +22.1 +15.7 67 +26 +26 душно 1002.7 1002.0
04 16.06 С 3 6000 м дождь н/о +18.3 +16.6 90 +19 +19 1003.9 1003.2
05 16.06 СЗ 5 20 км в посл. час дождь н/о +21.3 +16.7 75 +25 +25 комфорт 1004.3 1003.6
06 16.06 СЗ 5 20 км в посл. час дождь н/о +21.4 +15.0 67 +25 +25 комфорт 1005.3 1004.6 3
07 16.06 СЗ 5 20 км н/о +20.9 +14.6 67 +24 +24 комфорт 1006.1 1005.4
08 16.06 СЗ 5 20 км н/о +20.4 +14.5 69 +23 +23 комфорт 1006.7 1006.0
09 16.06 СЗ 5 20 км слаб. дождь н/о +19.4 +14.5 73 +21 +21 комфорт 1007.4 1006.7
10 16.06 СЗ 4 20 км слаб. дождь н/о +18.5 +14.6 78 +19 +19 1008.3 1007.6
11 16.06 СЗ 3 20 км в посл. час дождь н/о +18.5 +14.2 76 +19 +19 1008.9 1008.2
12 16.06 З 2 20 км в посл. час дождь н/о +18.2 +14.3 78 +19 +19 1009.8 1009.1 +22.9 3
13 16.06 З 1 20 км н/о +18.0 +14.3 79 +19 +19 1010.5 1009.8
14 16.06 СЗ 1 5000 м слаб. дождь н/о +16.8 +15.3 91 +18 +18 1011.3 1010.6
15 16.06 Ю 1 20 км слаб. дождь н/о +16.7 +15.9 95 +18 +18 1011.3 1010.6
16 16.06 З 1 20 км слаб. дождь н/о +16.6 +16.1 97 +18 +18 1011.3 1010.6
17 16.06 Ю 1 20 км в посл. час дождь н/о +16.4 +15.9 97 +18 +18 1011.3 1010.6
18 16.06 ЮЗ 1 20 км {дождь} н/о +16.3 +16.0 98 +18 +18 1012.1 1011.4 0.5
19 16.06 С 1 19 км н/о +16.6 +14.8 89 +17 +17 1012.8 1012.1
20 16.06 ЮЗ 1 15 км н/о +16.0 +15.4 96 +17 +17 1013.4 1012.7
21 16.06 Ю 1 15 км н/о +16.3 +15.7 96 +17 +17 1013.6 1012.9
22 16.06 Ю 1 20 км н/о +17.0 +15.5 91 +18 +18 1013.7 1013.0
23 16.06 Ю 1 20 км н/о +18.0 +15.3 84 +20 +20 1013.9 1013.2
00 17.06 В 1 20 км н/о +19.2 +14.0 72 +22 +22 комфорт 1013.8 1013.1 +15.9 0.5
01 17.06 ЮВ 2 20 км н/о +21.1 +14.3 65 +24 +24 комфорт 1013.8 1013.1
02 17.06 СВ 2 20 км н/о +22.0 +13.1 57 +25 +25 комфорт 1013.9 1013.2
03 17.06 С 3 20 км н/о +22.1 +14.5 62 +25 +25 комфорт 1013.9 1013.2
04 17.06 СЗ 4 20 км н/о +22.8 +14.9 61 +27 +27 душно 1013.7 1013.0
05 17.06 С 3 20 км н/о +23.0 +14.3 58 +27 +27 душно 1013.7 1013.0
06 17.06 СВ 4 20 км н/о +23.7 +15.5 60 +27 +27 жарко 1013.2 1012.5
07 17.06 С 3 20 км н/о +23.0 +15.1 61 +27 +27 душно 1012.8 1012.1
08 17.06 СЗ 3 20 км н/о +22.3 +15.2 64 +26 +26 жарко 1012.5 1011.8
09 17.06 С 3 20 км н/о +21.8 +15.4 67 +25 +25 комфорт 1012.6 1011.9
10 17.06 С 2 20 км н/о +20.6 +15.4 72 +24 +24 комфорт 1012.9 1012.2
11 17.06 СЗ 2 20 км н/о +19.2 +15.1 77 +21 +21 комфорт 1013.1 1012.4
12 17.06 С 1 20 км н/о +18.2 +15.8 86 +20 +20 1014.0 1013.3 +24.3
13 17.06 ЮЗ 1 20 км н/о +17.4 +15.8 90 +19 +19 1014.3 1013.6
14 17.06 СЗ 1 20 км н/о +17.0 +15.7 92 +18 +18 1014.3 1013.6
15 17.06 С 1 20 км н/о +16.5 +15.5 94 +18 +18 1014.2 1013.5
16 17.06 СВ 1 20 км н/о +16.1 +15.5 96 +17 +17 1013.8 1013.1
18 17.06 ЮВ 1 20 км н/о +15.9 +15.1 95 +17 +17 1013.1 1012.4
19 17.06 Ю 1 19 км н/о +15.6 +15.1 97 +17 +17 1013.1 1012.4
20 17.06 Ю 1 20 км н/о +15.3 +14.7 96 +16 +16 1013.2 1012.5
21 17.06 ЮВ 1 14 км н/о +15.4 +15.3 99 +16 +16 1013.5 1012.8
22 17.06 ЮВ 1 20 км н/о +16.2 +15.2 94 +18 +18 1013.4 1012.7
23 17.06 СВ 1 20 км н/о +18.8 +16.1 84 +21 +21 комфорт 1013.1 1012.4
00 18.06 Ю 1 20 км н/о +22.1 +16.2 69 +26 +26 душно 1012.2 1011.5 +15.1
01 18.06 Ю 2 20 км н/о +25.6 +16.7 58 +29 +29 душно 1011.7 1011.0
02 18.06 ЮВ 2 20 км н/о +27.0 +16.3 52 +30 +30 душно 1011.1 1010.4
03 18.06 СВ 3 20 км н/о +25.8 +16.9 58 +30 +30 душно 1010.7 1010.0
04 18.06 СВ 3 20 км н/о +26.8 +17.0 55 +31 +31 душно 1010.3 1009.6
05 18.06 С 3 20 км н/о +26.2 +16.7 56 +30 +30 душно 1010.3 1009.6
06 18.06 СЗ 2 20 км н/о +26.0 +17.4 59 +30 +30 душно 1009.9 1009.2
07 18.06 СВ 3 20 км н/о +26.0 +16.8 57 +30 +30 душно 1009.6 1008.9
08 18.06 СЗ 4 20 км н/о +24.3 +16.3 61 +28 +28 душно 1009.7 1009.0
09 18.06 СЗ 3 20 км н/о +22.9 +16.5 67 +28 +28 душно 1010.0 1009.3
10 18.06 СЗ 2 20 км н/о +22.4 +16.2 68 +27 +27 душно 1010.1 1009.4
11 18.06 СЗ 2 20 км н/о +21.7 +17.1 75 +26 +26 душно 1010.4 1009.7
12 18.06 СЗ 2 20 км н/о +20.4 +17.2 82 +24 +24 комфорт 1010.7 1010.0 +27.8
13 18.06 СЗ 1 20 км н/о +19.6 +17.2 86 +23 +23 комфорт 1010.8 1010.1
14 18.06 Ю 1 18 км н/о +19.3 +17.5 89 +22 +22 комфорт 1010.3 1009.6
15 18.06 СЗ 1 17 км н/о +18.5 +17.2 92 +21 +21 комфорт 1010.1 1009.4
16 18.06 С 1 16 км н/о +18.3 +17.2 93 +20 +20 1009.8 1009.1
17 18.06 ЮЗ 1 15 км н/о +18.2 +17.1 93 +20 +20 1009.4 1008.7
18 18.06 З 1 17 км н/о +18.0 +16.9 93 +20 +20 1008.9 1008.2
19 18.06 С 1 14 км н/о +17.5 +16.7 95 +19 +19 1008.8 1008.1
20 18.06 Ю 1 14 км н/о +17.5 +16.7 95 +19 +19 1009.4 1008.7
21 18.06 ЮЗ 1 10 км н/о +17.4 +16.9 97 +18 +18 1009.4 1008.7
22 18.06 В 1 17 км н/о +18.7 +17.2 91 +21 +21 комфорт 1009.4 1008.7
23 18.06 СВ 1 20 км н/о +20.1 +17.5 85 +24 +24 комфорт 1009.2 1008.5
00 19.06 ЮВ 1 20 км н/о +23.0 +16.8 68 +28 +28 душно 1008.4 1007.7 +17.4
01 19.06 В 2 20 км н/о +25.2 +16.4 58 +29 +29 душно 1008.2 1007.5
02 19.06 СВ 3 20 км н/о +27.1 +16.7 53 +31 +31 душно 1007.6 1006.9
03 19.06 С 3 20 км н/о +26.9 +17.4 56 +31 +31 душно 1006.7 1006.0
04 19.06 С 3 20 км н/о +27.5 +17.7 55 +32 +32 очень
душно
1006.0 1005.3
05 19.06 СВ 4 20 км н/о +27.0 +17.8 57 +31 +31 душно 1005.6 1004.9
06 19.06 СВ 3 20 км н/о +25.9 +18.3 63 +31 +31 очень
душно
1005.3 1004.6
07 19.06 СВ 3 20 км н/о +25.8 +18.2 63 +30 +30 душно 1005.3 1004.6
08 19.06 С 2 20 км н/о +24.3 +17.3 65 +28 +28 душно 1005.2 1004.5

 

Местоположение метеостанции Тоёока (Япония): широта 35.53 долгота 134.81 высота над уровнем моря 4 м.

В архиве по умолчанию представлена погода в Тоёоке за последнюю неделю. Архивные данные за месяц целиком и за предыдущие месяцы, начиная с января 2011 года, Вы можете получить, выбрав интересующий диапазон дат из раскрывающегося списка и нажав кнопку "Ввод!".


*Определитесь, кто Вы:
робот инопланетянин человек

Внимание! Время в таблицах - всемирное. Для получения местного времени необходимо прибавить поправку, которая равна 9 ч.

Смотрите также архив погоды в соседних городах и на ближайших метеорологических станциях:

Погода в Майдзуру (Япония) (46 км)
Погода в Тоттори (Япония) (56 км)
Погода в Химедзи (Япония) (79 км)
Погода в Цуяме (Япония) (89 км)
Погода в Кобе (Япония) (99 км)
Погода в Киото (Япония) (101 км)
Погода в Цуруге (Япония) (114 км)
Погода в Осаке (Япония) (114 км)
Погода в Окаяме (Япония) (126 км)
Погода в Наре (Япония) (131 км)

Пояснения к столбцам:

Ветер - указаны скорость ветра в м/с - средняя за 10 мин, порывы в срок и между сроками (в фигурных скобках) и направление, откуда дует ветер: С - северный, СВ - северо-восточный, В - восточный, ЮВ - юго-восточный, Ю - южный, ЮЗ - юго-западный, З - западный, СЗ - северо-западный.
Видимость - горизонтальная дальность видимости в метрах или километрах. При видимости от 1 до 10 км при отсутствии осадков обычно наблюдается дымка, при ухудшении видимости до 1 км и менее - туман. В сухую погоду видимость может ухудшаться дымом, пылью или мглою.
Явления - указаны атмосферные явления, наблюдавшиеся в срок или в последний час перед сроком; фигурными скобками обозначены явления, наблюдавшиеся между сроками (за 1-3 часа до срока); квадратными скобками обозначены град или гололедные отложения с указанием их диаметра в мм.
Облачность - указаны через наклонную черту общая и нижняя облачность в баллах и высота нижней границы облаков в метрах; квадратными скобками обозначены формы облаков: Ci - перистые, Cs - перисто-слоистые, Cc - перисто-кучевые, Ac - высококучевые, As - высокослоистые, Sc - слоисто-кучевые, Ns - слоисто-дождевые, Cu - кучевые, Cb - кучево-дождевые. Подробнее классификацию облаков см. в Атласе облаков (PDF).
T - Температура воздуха - температура, измеренная на высоте 2 м над землей.
Td - Температура точки росы - температура, при понижении до которой содержащийся в воздухе водяной пар достигнет насыщения.
f - Относительная влажность воздуха - влажноcть воздуха, измеренная на высоте 2 м над землей.
Te - Эффективная температура - температура, которую ощущает одетый по сезону человек в тени. Характеристика душности погоды. При расчете учитывается влияние влажности воздуха и скорости ветра на теплоощущения человека.
Tes - Эффективная температура на солнце - температура, которую ощущает человек, с поправкой на солнечный нагрев. Характеристика знойности погоды. Зависит от высоты солнца над горизонтом, облачности и скорости ветра. Ночью, в пасмурную погоду, а также при ветре 12 м/с и более поправка равна нулю.
P - Атмосферное давление - приведенное к уровню моря атмосферное давление.
Po - Атмосферное давление - измеренное на уровне метеостанции атмосферное давление.
Tmin - Минимальная температура - минимум температуры воздуха на высоте 2 м над землей.
Tmax - Максимальная температура - максимум температуры воздуха на высоте 2 м над землей.
R - Количество осадков - Количество выпавших осадков за период времени, мм. При наведении курсора мыши на число - период времени, за который выпало указанное количество осадков.
R24 - Количество осадков - Количество выпавших осадков за 24 часа, мм.
S - Снежный покров - Высота снежного покрова, см. При наведении курсора мыши на число - состояние снежного покрова и степень покрытия местности в баллах.